EW6113 Weather Reports


Display with metric or nautical units.
time (UTC)temp
F
wind
direction
speed
MPH
gust
MPH
rain 1hr
in
rain 24hr
in
rain mn
in
humidity
%
barometer
mb
20260831094542 57 70 4.0 9.0 0.00 0.00 0.00 92 1013.4
20260831093038 57 83 3.0 6.0 0.00 0.00 0.00 92 1013.5
20260831091536 57 62 1.0 4.0 0.00 0.00 0.00 91 1013.6
20260831090042 57 79 5.0 8.0 0.00 0.00 0.00 91 1013.5
20260831084533 57 51 2.0 6.0 0.00 0.00 0.00 91 1013.6
20260831083032 58 62 5.0 10.0 0.00 0.00 0.00 90 1013.7
20260831081530 58 88 3.0 5.0 0.00 0.00 0.00 90 1013.9
20260831080029 58 78 2.0 7.0 0.00 0.00 0.00 90 1014.0
20260831074528 58 100 3.0 6.0 0.00 0.00 0.00 91 1014.0
20260831073029 58 65 3.0 8.0 0.00 0.00 0.00 91 1013.9
20260831071525 58 99 2.0 6.0 0.00 0.00 0.00 91 1013.9
20260831070030 58 64 1.0 4.0 0.00 0.00 0.00 92 1013.8
20260831064523 58 92 3.0 7.0 0.00 0.00 0.00 92 1013.8
20260831063022 58 67 2.0 5.0 0.00 0.00 0.00 92 1013.8
20260831061522 58 70 2.0 4.0 0.00 0.00 0.00 92 1013.8
20260831060021 58 51 1.0 6.0 0.00 0.00 0.00 92 1013.9
20260831054525 58 55 3.0 7.0 0.00 0.00 0.00 92 1013.9
20260831053021 58 109 3.0 9.0 0.00 0.00 0.00 92 1014.0
20260831051526 58 94 3.0 9.0 0.00 0.00 0.00 92 1014.0
20260831050020 58 99 4.0 11.0 0.00 0.00 0.00 92 1014.1
20260831044520 58 103 1.0 8.0 0.00 0.00 0.00 92 1014.0
20260831043019 58 78 3.0 6.0 0.00 0.00 0.00 92 1014.0
20260831041525 58 84 4.0 7.0 0.00 0.00 0.00 92 1013.8
20260831040017 58 57 3.0 9.0 0.00 0.00 0.00 92 1013.6
20260831034517 58 87 3.0 9.0 0.00 0.00 0.00 92 1013.5
20260831033022 58 53 2.0 9.0 0.00 0.00 0.00 91 1013.3
20260831031519 58 72 3.0 9.0 0.00 0.00 0.00 91 1013.1
20260831030019 58 78 4.0 11.0 0.00 0.00 0.00 91 1013.1
20260831024521 59 64 3.0 10.0 0.00 0.00 0.00 90 1013.2
20260831023015 59 75 3.0 13.0 0.00 0.00 0.00 89 1013.1
20260831021514 59 71 4.0 12.0 0.00 0.00 0.00 88 1013.2
20260831020014 60 144 4.0 11.0 0.00 0.00 0.00 88 1013.3
20260831014520 60 111 3.0 10.0 0.00 0.00 0.00 86 1013.3
20260831013013 61 83 7.0 13.0 0.00 0.00 0.00 86 1013.4
20260831011514 61 65 5.0 15.0 0.00 0.00 0.00 85 1013.4
20260831010010 62 64 4.0 14.0 0.00 0.00 0.00 84 1013.4
20260831004509 62 101 5.0 13.0 0.00 0.00 0.00 82 1013.3
20260831003008 62 30 7.0 14.0 0.00 0.00 0.00 82 1013.3
20260831001507 62 96 6.0 12.0 0.00 0.00 0.00 83 1013.4
20260831000007 63 97 8.0 15.0 0.00 0.00 0.00 80 1013.3
20260830234506 63 105 6.0 15.0 0.00 0.00 0.00 81 1013.3
20260830233006 64 113 6.0 15.0 0.00 0.00 0.00 80 1013.4
20260830231507 63 94 5.0 15.0 0.00 0.00 0.00 81 1013.6
20260830230005 63 65 7.0 17.0 0.00 0.00 0.00 81 1013.7
20260830224506 64 103 9.0 16.0 0.00 0.00 0.00 79 1013.9
20260830223003 64 99 7.0 12.0 0.00 0.00 0.00 78 1014.0
20260830221504 64 90 8.0 15.0 0.00 0.00 0.00 78 1014.1
20260830220002 63 109 10.0 17.0 0.00 0.00 0.00 80 1014.2
20260830214501 63 70 10.0 18.0 0.00 0.00 0.00 81 1014.3
20260830213100 63 48 9.0 15.0 0.00 0.00 0.00 81 1014.5
20260830211600 63 92 10.0 16.0 0.00 0.00 0.00 80 1014.5
20260830210100 64 109 8.0 17.0 0.00 0.00 0.00 79 1014.6
20260830204559 63 138 8.0 16.0 0.00 0.00 0.00 81 1014.5
20260830203118 63 78 8.0 18.0 0.00 0.00 0.00 81 1014.6
20260830201607 63 84 7.0 16.0 0.00 0.00 0.00 82 1014.6
20260830200056 63 82 7.0 13.0 0.00 0.00 0.00 80 1014.6
20260830194558 63 130 8.0 16.0 0.00 0.00 0.00 81 1014.7
20260830193056 63 105 7.0 20.0 0.00 0.00 0.00 81 1014.7
20260830191558 63 82 8.0 15.0 0.00 0.00 0.00 82 1014.8
20260830190052 62 61 11.0 16.0 0.00 0.00 0.00 82 1014.9
20260830184551 62 25 8.0 15.0 0.00 0.00 0.00 82 1014.9
20260830183104 62 94 8.0 15.0 0.00 0.00 0.00 84 1015.0
20260830181556 61 81 8.0 15.0 0.00 0.00 0.00 84 1014.9
20260830180047 61 74 8.0 17.0 0.00 0.00 0.00 83 1014.8
20260830174548 62 102 8.0 13.0 0.00 0.00 0.00 82 1014.5
20260830173102 62 31 8.0 16.0 0.00 0.00 0.00 82 1014.3
20260830171545 62 58 8.0 14.0 0.00 0.00 0.00 83 1014.0
20260830170041 62 130 6.0 10.0 0.00 0.00 0.00 85 1014.1
20260830164603 63 117 2.0 8.0 0.00 0.00 0.00 89 1014.0
20260830163047 60 83 2.0 3.0 0.00 0.00 0.00 93 1014.0
20260830161530 58 112 2.0 6.0 0.00 0.00 0.00 95 1013.9
20260830160027 57 53 1.0 9.0 0.00 0.00 0.00 97 1014.0
20260830154529 56 58 5.0 10.0 0.00 0.00 0.00 98 1014.2
20260830153021 55 102 4.0 9.0 0.00 0.00 0.00 99 1014.2
20260830151535 52 288 0.0 2.0 0.00 0.00 0.00 98 1014.3
20260830150019 51 288 0.0 0.0 0.00 0.00 0.00 99 1014.1
20260830144516 48 288 0.0 0.0 0.00 0.00 0.00 98 1014.1
20260830143015 47 288 0.0 0.0 0.00 0.00 0.00 98 1014.0
20260830141513 46 288 0.0 0.0 0.00 0.00 0.00 97 1013.9
20260830140011 47 288 0.0 2.0 0.00 0.00 0.00 97 1013.8
20260830134511 47 288 0.0 3.0 0.00 0.00 0.00 96 1013.7
20260830133009 46 288 0.0 2.0 0.00 0.00 0.00 96 1013.4
20260830131504 47 288 0.0 1.0 0.00 0.00 0.00 96 1013.4
20260830130004 47 288 0.0 0.0 0.00 0.00 0.00 96 1013.3
20260830124505 47 288 0.0 0.0 0.00 0.00 0.00 96 1013.3
20260830123001 47 288 0.0 1.0 0.00 0.00 0.00 96 1013.1
20260830121558 48 288 1.0 3.0 0.00 0.00 0.00 96 1013.0
20260830120058 48 288 0.0 0.0 0.00 0.00 0.00 96 1013.0
20260830114613 48 288 0.0 3.0 0.00 0.00 0.00 96 1013.1
20260830113102 48 288 0.0 0.0 0.00 0.00 0.00 96 1013.1
20260830111553 48 288 0.0 0.0 0.00 0.00 0.00 96 1013.0
20260830110052 49 288 0.0 0.0 0.00 0.00 0.00 96 1013.2
20260830104557 49 288 0.0 3.0 0.00 0.00 0.00 96 1013.2
20260830103048 49 288 0.0 2.0 0.00 0.00 0.00 96 1013.1
20260830101549 49 288 1.0 3.0 0.00 0.00 0.00 95 1013.2
20260830100044 50 288 0.0 2.0 0.00 0.00 0.00 96 1013.2